Back to catalog

COSMOS 2251 DEB

AliveLEO
NORAD 34681·DEBRIS·🇷🇺 Russia

Launched Jun 16, 1993 from Plesetsk Cosmodrome

Loading…

Next Passes (next 24 hours)

TLE

FreshSource: Space-Track

Epoch: Sep 14, 2026, 00:49 UTC

1 34681U 93036YB  26257.03431934  .00006188  00000-0  66975-3 0  9991
2 34681  74.0586 103.6497 0022884  97.7848  53.8938 14.88270919933607

Track COSMOS 2251 DEB in real time with AllMySat

Download on the App Store